Weather reports worldwide

Advertisment
Cannes, France (7684): temperature & dewpoint: 07.07.2020 07:00:00 - 13.07.2020 07:00:00 (CEST)Cannes, France (7684): temperature 5cm: 07.07.2020 07:00:00 - 13.07.2020 07:00:00 (CEST)Cannes, France (7684): wind speed & gusts: 07.07.2020 07:00:00 - 13.07.2020 07:00:00 (CEST)Cannes, France (7684): wind direction: 07.07.2020 07:00:00 - 13.07.2020 07:00:00 (CEST)Cannes, France (7684): reduced air pressure: 07.07.2020 07:00:00 - 13.07.2020 07:00:00 (CEST)Cannes, France (7684): visibility: 07.07.2020 07:00:00 - 13.07.2020 07:00:00 (CEST)Cannes, France (7684): precipitation: 07.07.2020 07:00:00 - 13.07.2020 07:00:00 (CEST)
Date & Time tt [°C] td [°C] tt 5cm [°C] ff [km/h] ff [kn] fx [km/h] fx [kn] dd ppp [hPa] vv [km] rr [mm]
13.07.2020 07:00:00 - - - - - - - - - - -
13.07.2020 06:00:00 20,3 14,9 18,8 4 2 12 7 N 1017,9 60 0,0
13.07.2020 05:00:00 20,6 15,6 19,2 6 4 13 7 N 1017,7 60 0,0
13.07.2020 04:00:00 21,2 16,2 19,1 5 3 13 7 N 1017,9 60 0,0
13.07.2020 03:00:00 22,5 16,3 20,9 8 4 11 6 N 1018,0 60 0,0
13.07.2020 02:00:00 22,6 16,8 19,8 2 1 6 4 N 1018,2 60 0,0
13.07.2020 01:00:00 22,4 16,7 19,5 3 2 11 6 N 1018,2 60 0,0
13.07.2020 00:00:00 22,7 17,2 19,4 6 3 11 6 NNW 1017,8 60 0,0
12.07.2020 23:00:00 24,1 16,4 20,0 2 1 6 3 N 1017,7 60 0,0
12.07.2020 22:00:00 25,1 16,5 22,2 3 1 10 5 NNW 1017,8 20 0,0
12.07.2020 21:00:00 26,3 16,8 23,7 3 2 8 5 NW 1017,6 60 0,0
12.07.2020 20:00:00 27,6 16,2 26,1 2 1 11 6 W 1017,1 60 0,0
12.07.2020 19:00:00 28,3 16,2 29,2 8 4 18 10 S 1017,6 60 0,0
12.07.2020 18:00:00 28,9 17,1 33,2 10 5 20 11 S 1017,7 60 0,0
12.07.2020 17:00:00 29,3 17,8 35,4 8 4 23 13 SSE 1017,8 51 0,0
12.07.2020 16:00:00 28,8 18,0 36,0 11 6 24 13 S 1018,4 20 0,0
12.07.2020 15:00:00 28,6 19,2 39,1 11 6 24 13 S 1018,1 19 0,0
12.07.2020 14:00:00 28,6 20,3 38,9 11 6 23 12 S 1017,8 27 0,0
12.07.2020 13:00:00 28,4 20,2 35,7 18 10 24 13 S 1017,8 35 0,0
12.07.2020 12:00:00 28,0 20,6 36,4 18 10 27 15 S 1017,6 20 0,0
12.07.2020 11:00:00 27,5 21,3 31,2 14 7 20 11 S 1017,5 20 0,0
12.07.2020 10:00:00 26,9 20,7 28,1 10 5 16 8 S 1017,1 20 0,0
12.07.2020 09:00:00 26,1 20,7 26,3 4 2 10 5 ENE 1017,0 42 0,0
12.07.2020 08:00:00 25,3 21,2 22,7 5 3 9 5 N 1016,7 19 0,0
12.07.2020 07:00:00 23,1 20,8 21,0 4 2 9 5 NNE 1016,0 19 0,0
12.07.2020 06:00:00 22,7 20,2 20,6 3 1 7 4 N 1015,4 18 0,0
12.07.2020 05:00:00 23,9 20,4 21,8 3 2 10 5 E 1015,2 41 0,0
12.07.2020 04:00:00 23,8 20,5 21,7 4 2 14 7 ENE 1015,2 20 0,0
12.07.2020 03:00:00 24,1 20,6 22,6 5 3 15 8 ENE 1015,4 20 0,0
12.07.2020 02:00:00 24,4 21,3 23,2 5 3 12 6 ENE 1015,4 20 0,0
12.07.2020 01:00:00 24,5 21,0 23,5 5 3 12 6 NE 1015,3 37 0,0
12.07.2020 00:00:00 24,4 20,9 23,1 4 2 14 8 ENE 1015,3 36 0,0
11.07.2020 23:00:00 24,7 20,8 23,9 3 2 16 8 NE 1014,9 39 0,0
11.07.2020 22:00:00 24,9 20,8 24,3 7 4 20 11 ENE 1014,2 42 0,0
11.07.2020 21:00:00 25,3 21,2 24,6 9 5 24 13 E 1013,5 45 0,0
11.07.2020 20:00:00 26,1 20,4 26,5 12 7 22 12 E 1012,9 49 0,0
11.07.2020 19:00:00 28,1 20,1 29,9 7 4 22 12 E 1012,5 58 0,0
11.07.2020 18:00:00 27,7 20,3 32,0 14 8 26 14 SSE 1012,5 31 0,0
11.07.2020 17:00:00 27,6 21,2 32,8 16 8 25 14 SSE 1012,8 20 0,0
11.07.2020 16:00:00 26,7 21,0 33,6 12 6 23 13 SE 1013,1 37 0,0
11.07.2020 15:00:00 27,0 21,7 37,2 14 8 23 12 S 1013,4 30 0,0
11.07.2020 14:00:00 27,1 21,4 37,2 15 8 26 14 S 1013,5 20 0,0
11.07.2020 13:00:00 26,6 21,4 34,9 15 8 24 13 S 1013,8 41 0,0
11.07.2020 12:00:00 26,7 21,5 35,3 10 5 21 12 SSE 1013,9 20 0,0
11.07.2020 11:00:00 26,4 20,9 32,1 11 6 19 11 SSE 1014,0 20 0,0
11.07.2020 10:00:00 26,2 20,5 28,8 9 5 16 9 S 1013,9 20 0,0
11.07.2020 09:00:00 25,4 18,8 24,1 3 2 8 5 SW 1013,9 54 0,0
11.07.2020 08:00:00 22,7 18,2 19,8 5 3 10 5 N 1013,9 56 0,0
11.07.2020 07:00:00 20,0 18,0 18,6 5 3 11 6 N 1014,0 53 0,0
11.07.2020 06:00:00 19,5 17,8 18,5 6 3 10 6 N 1013,7 50 0,0
11.07.2020 05:00:00 19,7 17,8 18,8 6 3 12 6 N 1013,8 47 0,0
11.07.2020 04:00:00 19,9 18,0 19,0 5 3 12 6 N 1013,9 49 0,0
11.07.2020 03:00:00 20,8 18,2 19,7 6 3 11 6 N 1014,2 58 0,0
11.07.2020 02:00:00 21,4 18,2 20,2 7 4 12 6 NNE 1014,7 60 0,0
11.07.2020 01:00:00 21,7 18,3 20,6 2 1 13 7 N 1014,7 60 0,0
11.07.2020 00:00:00 22,2 18,2 20,7 8 4 12 6 N 1014,2 60 0,0
10.07.2020 23:00:00 23,0 18,5 20,7 4 2 8 4 NNE 1014,5 60 0,0
10.07.2020 22:00:00 23,4 19,1 21,3 2 1 8 4 N 1014,2 19 0,0
10.07.2020 21:00:00 24,2 18,6 22,9 3 2 14 7 SSE 1014,3 60 0,0
10.07.2020 20:00:00 25,2 18,2 25,4 10 5 16 9 SSE 1014,5 37 0,0
10.07.2020 19:00:00 25,8 18,5 27,4 11 6 21 11 S 1014,2 58 0,0
10.07.2020 18:00:00 26,0 19,9 29,0 11 6 19 11 SE 1014,5 49 0,0
10.07.2020 17:00:00 26,7 20,5 32,1 12 7 22 12 SSE 1014,7 20 0,0
10.07.2020 16:00:00 27,1 18,9 33,7 12 6 24 13 SSE 1014,5 20 0,0
10.07.2020 15:00:00 27,4 20,2 36,4 12 6 22 12 SSE 1014,6 20 0,0
10.07.2020 14:00:00 27,6 19,9 37,2 14 8 21 12 S 1015,1 38 0,0
10.07.2020 13:00:00 27,3 20,1 34,7 13 7 23 12 S 1015,6 20 0,0
10.07.2020 12:00:00 26,8 21,1 35,1 11 6 22 12 S 1016,0 20 0,0
10.07.2020 11:00:00 26,6 20,9 31,9 10 6 18 10 SSE 1016,2 20 0,0
10.07.2020 10:00:00 26,3 19,9 28,2 8 4 14 8 S 1016,3 20 0,0
10.07.2020 09:00:00 24,7 17,7 22,6 6 3 11 6 N 1016,1 20 0,0
10.07.2020 08:00:00 21,6 16,8 18,6 5 3 13 7 N 1016,2 46 0,0
10.07.2020 07:00:00 19,0 16,0 17,0 6 4 15 8 N 1016,0 54 0,0
10.07.2020 06:00:00 18,0 15,8 16,9 5 3 15 8 N 1015,5 55 0,0
10.07.2020 05:00:00 18,4 16,2 17,4 8 4 16 9 N 1015,2 58 0,0
10.07.2020 04:00:00 18,7 16,5 17,5 8 4 12 7 N 1015,4 59 0,0
10.07.2020 03:00:00 19,3 16,7 18,0 7 4 13 7 N 1015,9 60 0,0
10.07.2020 02:00:00 19,7 16,9 18,3 6 3 10 5 N 1016,2 60 0,0
10.07.2020 01:00:00 20,2 17,2 18,8 6 3 10 6 N 1016,2 60 0,0
10.07.2020 00:00:00 21,2 17,4 19,3 6 3 10 5 N 1016,2 60 0,0
09.07.2020 23:00:00 22,3 17,0 19,8 6 3 9 5 NNE 1016,2 60 0,0
09.07.2020 22:00:00 23,5 18,6 20,1 3 1 5 3 N 1016,1 60 0,0
09.07.2020 21:00:00 24,6 18,8 22,6 5 3 14 8 S 1015,9 60 0,0
09.07.2020 20:00:00 26,0 18,2 25,9 9 5 15 8 SSE 1015,9 60 0,0
09.07.2020 19:00:00 27,0 17,2 28,7 8 4 20 11 SSE 1016,0 57 0,0
09.07.2020 18:00:00 27,1 17,0 31,1 10 6 22 12 SSE 1016,2 20 0,0
09.07.2020 17:00:00 27,2 17,9 32,6 14 8 23 12 SSE 1016,7 45 0,0
09.07.2020 16:00:00 27,1 18,4 33,6 16 9 25 13 SSE 1017,0 59 0,0
09.07.2020 15:00:00 27,1 18,4 36,0 16 9 24 13 SSE 1017,2 60 0,0
09.07.2020 14:00:00 27,3 19,1 38,1 15 8 24 13 S 1017,6 32 0,0
09.07.2020 13:00:00 27,3 17,5 35,6 15 8 23 13 S 1017,7 43 0,0
09.07.2020 12:00:00 27,8 17,9 36,1 10 5 19 10 SSE 1017,9 48 0,0
09.07.2020 11:00:00 27,2 18,2 32,8 10 6 17 9 S 1018,0 58 0,0
09.07.2020 10:00:00 26,6 18,2 29,0 7 4 15 8 S 1017,3 57 0,0
09.07.2020 09:00:00 25,1 17,0 22,7 3 2 8 4 N 1016,8 20 0,0
09.07.2020 08:00:00 21,6 16,8 18,4 3 2 13 7 N 1016,7 20 0,0
09.07.2020 07:00:00 19,2 16,1 17,1 5 3 12 6 N 1016,4 57 0,0
09.07.2020 06:00:00 18,3 16,1 17,0 5 3 11 6 N 1016,4 58 0,0
09.07.2020 05:00:00 18,3 16,3 17,0 5 3 10 5 N 1016,5 60 0,0
09.07.2020 04:00:00 18,5 16,3 17,2 7 4 12 6 N 1016,3 60 0,0
09.07.2020 03:00:00 18,8 16,6 17,2 4 2 11 6 N 1016,5 60 0,0
09.07.2020 02:00:00 19,2 16,8 17,9 5 3 11 6 N 1017,0 60 0,0
09.07.2020 01:00:00 19,8 17,0 18,1 4 2 9 5 N 1017,3 60 0,0
09.07.2020 00:00:00 20,4 17,4 18,9 4 2 9 5 N 1017,2 60 0,0
08.07.2020 23:00:00 21,5 17,3 19,5 5 3 9 5 N 1016,8 60 0,0
08.07.2020 22:00:00 22,7 17,6 19,5 3 2 9 5 N 1016,3 60 0,0
08.07.2020 21:00:00 24,0 17,5 22,2 6 3 16 8 SSE 1016,0 60 0,0
08.07.2020 20:00:00 25,5 17,7 25,3 6 3 17 9 SSE 1015,9 60 0,0
08.07.2020 19:00:00 26,0 17,6 27,3 11 6 26 14 SSE 1015,9 31 0,0
08.07.2020 18:00:00 26,1 19,0 30,0 16 9 29 15 SSE 1016,2 26 0,0
08.07.2020 17:00:00 27,1 20,2 32,2 16 9 34 18 SSE 1016,6 18 0,0
08.07.2020 16:00:00 26,8 20,2 32,6 22 12 35 19 S 1016,8 16 0,0
08.07.2020 15:00:00 27,1 20,4 35,2 23 13 40 22 S 1016,7 19 0,0
08.07.2020 14:00:00 27,6 19,1 37,6 22 12 37 20 SSE 1016,4 20 0,0
08.07.2020 13:00:00 27,4 19,7 34,6 16 9 30 16 SE 1016,6 20 0,0
08.07.2020 12:00:00 27,2 19,0 35,9 18 10 25 13 S 1016,7 33 0,0
08.07.2020 11:00:00 27,4 18,4 30,6 10 5 17 9 SSE 1016,5 19 0,0
08.07.2020 10:00:00 26,3 16,5 23,9 2 1 6 4 N 1016,4 20 0,0
08.07.2020 09:00:00 24,7 15,1 20,6 6 3 12 6 N 1016,2 60 0,0
08.07.2020 08:00:00 21,3 15,2 19,8 5 3 11 6 NNW 1015,9 55 0,0
08.07.2020 07:00:00 20,4 14,7 16,9 5 3 13 7 NNE 1015,5 20 0,0
08.07.2020 06:00:00 19,1 14,6 17,0 5 3 13 7 N 1015,1 60 0,0
08.07.2020 05:00:00 19,2 14,9 17,3 8 4 14 8 N 1015,1 60 0,0
08.07.2020 04:00:00 19,5 15,4 17,5 6 4 13 7 N 1015,1 60 0,0
08.07.2020 03:00:00 19,9 15,5 18,1 6 3 17 9 N 1015,0 60 0,0
08.07.2020 02:00:00 20,7 15,9 17,7 6 3 12 6 N 1015,0 60 0,0
08.07.2020 01:00:00 21,6 16,3 17,2 5 3 8 4 N 1015,1 60 0,0
08.07.2020 00:00:00 22,5 16,5 18,0 2 1 8 4 N 1015,1 60 0,0
07.07.2020 23:00:00 23,4 16,7 18,8 3 2 6 3 N 1014,8 60 0,0
07.07.2020 22:00:00 24,7 16,4 20,0 4 2 13 7 SW 1014,5 3,0 0,0
07.07.2020 21:00:00 25,7 16,3 22,9 8 4 16 8 S 1013,8 60 0,0
07.07.2020 20:00:00 27,6 16,6 26,5 11 6 23 12 S 1013,4 52 0,0
07.07.2020 19:00:00 27,8 17,3 28,5 17 9 29 16 S 1013,2 27 0,0
07.07.2020 18:00:00 27,9 18,0 31,0 18 10 29 16 S 1013,1 20 0,0
07.07.2020 17:00:00 28,7 16,6 33,7 16 8 26 14 S 1013,3 28 0,0
07.07.2020 16:00:00 29,3 15,1 35,3 17 9 27 15 S 1013,2 20 0,0
07.07.2020 15:00:00 29,7 15,4 36,8 14 8 36 19 S 1012,8 22 0,0
07.07.2020 14:00:00 28,7 16,9 38,0 20 11 37 20 S 1012,1 20 -
07.07.2020 13:00:00 28,4 18,5 36,0 16 9 30 16 SE 1011,7 33 0,0
07.07.2020 12:00:00 29,7 16,5 32,4 11 6 19 10 SSE 1010,8 44 0,0
07.07.2020 11:00:00 28,9 15,8 32,0 10 5 15 8 SE 1010,3 60 0,0
07.07.2020 10:00:00 27,3 17,5 28,0 10 6 16 8 SSE 1009,9 60 0,0
07.07.2020 09:00:00 25,2 18,2 23,5 4 2 9 5 NNW 1009,5 54 0,0
07.07.2020 08:00:00 22,5 17,4 19,0 5 3 9 5 NNW 1009,1 44 0,0
07.07.2020 07:00:00 20,2 16,0 18,0 4 2 9 5 N 1008,5 60 0,0

tt = temperature
td = dewpoint
tt 5cm = temperature 5cm
ff = wind speed
fx = gusts
dd = wind direction
ppp = reduced air pressure
vv = visibility
rr = precipitation

Next stations